METAR LSZS 140950Z 04007KT 020V090 CAVOK M04/M14 Q1019 RMK I
Diese Daten sind ohne Gewähr und dürfen nicht für die Flugvorbereitung verwendet werden.
Information contained in this website shall not be used for flight operation purposes.